Location: Clifton Park
(41.4873°N, 81.8024°W)
Time: 21:43:32
(UTC+00:00)

Cosmos 2184 Rocket - Pass Details

Date: 21 January 2020
Orbit: 959 x 1002 km, 82.9° (Epoch: 17 February)

Event Time Altitude Azimuth Distance (km) Brightness Sun altitude
Exits shadow 10:11:23 81° 212° (SSW) 990 3.8 -29.2°
Drops below altitude 10° 10:17:21 10° 177° (S) 2,724 6.4 -28.0°
Sets 10:19:52 0° 177° (S) 3,675 7.1 -27.6°
